Regional Weather Roundup
Issued by NWS State College, PA

Home | Current Version | Previous Version | Text Only | Print | Product List | Glossary On
Versions: 1 2 3 4 5 6 7 8 9 10 11 12 13 14 15 16 17 18 19 20 21 22 23 24 25 26 27 28 29 30 31 32 33 34 35 36 37 38 39 40 41 42 43 44 45 46 47 48 49 50
000
ASUS41 KCTP 050410
RWRCTP

REGIONAL WEATHER ROUNDUP
NATIONAL WEATHER SERVICE STATE COLLEGE PA
1200 AM EDT SAT SEP 05 2015

Note: "fair" indicates few or no clouds below 12,000 feet with no
significant weather and/or obstructions to visibility.

* = STATION THAT DOES NOT REPORT PRECIPITATION /E.G. RAIN...SNOW...ETC/
    THUNDER OR FOG.

PAZ002>004-007>009-013>016-020>023-029>032-050500-
WESTERN PENNSYLVANIA

CITY           SKY/WX    TMP DP  RH WIND       PRES   REMARKS
ERIE           PTCLDY    71  63  75 SE8       30.09R
MEADVILLE      MOCLDY    66  62  87 SW3       30.15R
FRANKLIN*      MOCLDY    64  63  94 NE5       30.16S
NEW CASTLE     FAIR      68  68 100 CALM      30.13F
BEAVER COUNTY  NOT AVBL
BUTLER*        CLEAR     66  64  94 E3        30.15F
PITTSBURGH INT MOCLDY    72  64  76 E5        30.12S
PITTSBURGH     PTCLDY    70  62  76 E6        30.13R
INDIANA*       CLOUDY    68  66  94 CALM      30.19R
LATROBE        NOT AVBL
WASHINGTON CO* PTCLDY    64  63  94 CALM      30.14R
$$

PAZ004>006-010>012-017>019-024>028-033>037-041-042-045-046-049>053-050500-
CENTRAL PENNSYLVANIA

CITY           SKY/WX    TMP DP  RH WIND       PRES   REMARKS
BRADFORD       PTCLDY    63  60  90 CALM      30.20S
DUBOIS         MOCLDY    68  64  87 E3        30.17S FOG
CLEARFIELD     MOCLDY    67  65  93 N5        30.18S
JOHNSTOWN      PTCLDY    66  61  84 SE5       30.20S
ALTOONA        MOCLDY    72  66  81 E7        30.20R
STATE COLLEGE  MOCLDY    74  67  79 SE5       30.18S
WILLIAMSPORT   CLOUDY    73  68  84 E3        30.16R
SELINSGROVE    MOCLDY    74  68  81 S6        30.18R
FT INDIANTOWN  PTCLDY    71  68  88 CALM      30.19R
CAPITAL CITY   CLOUDY    76  67  73 SE14      30.18R
HARRISBURG     MOCLDY    75  67  76 SE9       30.17R
YORK           MOCLDY    73  68  84 E5        30.18R
$$

PAZ038>040-043-044-047-048-054-055-060>062-067>071-050500-
EASTERN PENNSYLVANIA

CITY           SKY/WX    TMP DP  RH WIND       PRES   REMARKS
SCRANTON       CLEAR     73  64  73 CALM      30.21R
MOUNT POCONO   CLOUDY    67  65  93 S5        30.26S FOG
ALLENTOWN      CLEAR     72  62  71 E9        30.21R
QUAKERTOWN*    PTCLDY    68  64  88 E5        30.22S
READING        PTCLDY    73  64  73 SE7       30.19R
LANCASTER      PTCLDY    69  67  93 E6        30.19R
COATESVILLE    CLOUDY    72  66  83 E10G16    30.21S
POTTSTOWN      MOCLDY    69  65  86 CALM      30.22R
BLUE BELL      PTCLDY    72  66  83 E5        30.19S
DOYLESTOWN     PTCLDY    67  64  90 NE3       30.21R
WILLOW GROVE   NOT AVBL
NORTH PHILA    CLOUDY    74  64  71 E7        30.21R
PHILADELPHIA   MOCLDY    75  66  73 E12       30.19R
$$



USA.gov is the U.S. government's official web portal to all federal, state and local government web resources and services.